Location: Gleizolles
(44.4833°N, 6.7667°E)
Time: 10:45:47
(UTC+00:00)

A-11 Canister half - Pass Details

Date: 14 June 2024
Orbit: 1515 x 1685 km, 47.2° (Epoch: 14 July)

Event Time Altitude Azimuth Distance (km) Brightness Sun altitude
Rises 20:00:24 0° 242° (WSW) 4,914 11.9 -6.6°
Reaches altitude 10° 20:03:34 10° 241° (WSW) 3,915 11.4 -7.0°
Maximum altitude 20:13:37 82° 156° (SSE) 1,646 9.1 -8.3°
Drops below altitude 10° 20:23:20 10° 71° (ENE) 3,796 10.8 -9.5°
Sets 20:26:22 0° 71° (ENE) 4,759 11.3 -9.9°
